Regional Weather Roundup
Issued by NWS State College, PA

Home | Current Version | Previous Version | Graphics & Text | Print | Product List | Glossary Off
Versions: 1 2 3 4 5 6 7 8 9 10 11 12 13 14 15 16 17 18 19 20 21 22 23 24 25 26 27 28 29 30 31 32 33 34 35 36 37 38 39 40 41 42 43 44 45 46 47 48 49 50

000
ASUS41 KCTP 280010
RWRCTP

REGIONAL WEATHER ROUNDUP
NATIONAL WEATHER SERVICE STATE COLLEGE PA
700 PM EST FRI FEB 27 2015

Note: "fair" indicates few or no clouds below 12,000 feet with no
significant weather and/or obstructions to visibility.

* = STATION THAT DOES NOT REPORT PRECIPITATION /E.G. RAIN...SNOW...ETC/
    THUNDER OR FOG.

PAZ002>004-007>009-013>016-020>023-029>032-280100-
WESTERN PENNSYLVANIA

CITY           SKY/WX    TMP DP  RH WIND       PRES   REMARKS
ERIE           FAIR       6  -2  69 SW3       30.61R
MEADVILLE        N/A      7  -6  55 CALM      30.53R
FRANKLIN*      CLEAR      9  -6  52 CALM      30.53R
NEW CASTLE     FAIR      10  -5  51 CALM      30.58R
BEAVER COUNTY  CLEAR     12  -2  52 CALM      30.55
BUTLER*        CLEAR     10  -4  52 CALM      30.56R
PITTSBURGH INT PTCLDY    13  -2  51 NW6       30.55R WCI   4
PITTSBURGH     CLEAR     13  -6  42 NW6       30.54R WCI   4
INDIANA*       PTCLDY    12  -4  48 NW6       30.56R WCI   3
LATROBE        PTCLDY    16  -2  45 CALM      30.56R
WASHINGTON CO* CLEAR     14  -4  44 W3        30.57R
$$

PAZ004>006-010>012-017>019-024>028-033>037-041-042-045-046-049>053-280100-
CENTRAL PENNSYLVANIA

CITY           SKY/WX    TMP DP  RH WIND       PRES   REMARKS
BRADFORD       CLEAR      5  -9  52 NW8       30.43R WCI  -8
DUBOIS         CLEAR      9  -6  50 W8        30.46R WCI  -3
CLEARFIELD     CLEAR     13  -7  40 W8        30.48R WCI   2
JOHNSTOWN      PTCLDY     9  -4  55 W8        30.42R WCI  -3
ALTOONA        CLEAR     13  -3  49 NW7       30.50R WCI   3
STATE COLLEGE  CLEAR     16  -4  41 W9        30.50R WCI   4
WILLIAMSPORT   CLOUDY    24  -2  32 N5        30.50R
SELINSGROVE    CLEAR     22   1  40 W7        30.52R WCI  13
FT INDIANTOWN  CLEAR     23   2  39 W7        30.51R
CAPITAL CITY   CLEAR     24   2  38 NW15      30.53R WCI  11
HARRISBURG     CLEAR     25   5  42 NW12      30.52R WCI  14
YORK           CLEAR     20   6  55 NW6       30.52R WCI  12
$$

PAZ038>040-043-044-047-048-054-055-060>062-067>071-280100-
EASTERN PENNSYLVANIA

CITY           SKY/WX    TMP DP  RH WIND       PRES   REMARKS
SCRANTON       CLEAR     17  -2  43 N3        30.46R
MOUNT POCONO     N/A    N/A N/A N/A MISG      30.36R
ALLENTOWN      CLEAR     22   3  44 W6        30.49R WCI  14
QUAKERTOWN*    CLEAR     21   3  45 W5        30.50R WCI  15
READING        CLEAR     22   3  44 NW5       30.51R
LANCASTER      CLEAR     21   6  52 NW8       30.51R WCI  11
COATESVILLE    CLEAR     23   9  54 CALM      30.49R
POTTSTOWN      CLEAR     21   5  50 NW5       30.53R WCI  15
BLUE BELL      CLEAR     27   7  43 CALM      30.50R
DOYLESTOWN     CLEAR     21   5  50 W6        30.49R WCI  13
WILLOW GROVE   NOT AVBL
NORTH PHILA    CLEAR     27   3  35 NW10      30.54R
PHILADELPHIA   CLEAR     27   4  37 NW10      30.54R
$$



USA.gov is the U.S. government's official web portal to all federal, state and local government web resources and services.